Game: Donkey Kong 64
Bid: Collect the new Rainbow Coin Total: $3,256.00 Goal: $3,000.00

Description
Kiwikiller67 will collect the hidden Rainbow Coin that remained unfound until last year.
NameAscDsc Time ReceivedAscDsc AmountAscDsc
(Anonymous) 2017-07-02T23:31:50.167332-04:00 $50.00
A..., Ole (Ole) 2017-07-02T23:31:31.360599-04:00 $150.00
Vergil0807 2017-07-02T23:30:57.179419-04:00 $50.00
Kineticka 2017-07-02T23:27:19.461090-04:00 $20.00
Satoryu 2017-07-02T23:27:10.017591-04:00 $20.00
Dragsnes, Even (Evendrag) 2017-07-02T23:27:05.995845-04:00 $15.00
HotAndColdAF 2017-07-02T23:19:52.300202-04:00 $10.00
Scaccia, Garrett (Garrett) 2017-07-02T23:16:08.682944-04:00 $150.00
Calam 2017-07-02T23:13:35.006829-04:00 $10.00
Blue Mage 2017-07-02T23:08:30.386055-04:00 $10.00
BashPrime 2017-07-02T22:51:09.770687-04:00 $15.00
Pariah1165 2017-07-02T22:48:50.774392-04:00 $5.00
BashPrime 2017-07-02T22:47:43.504537-04:00 $25.00
BashPrime 2017-07-02T22:44:24.090669-04:00 $15.00
Shiver Fluff 2017-07-02T22:41:51.113241-04:00 $10.00
(Anonymous) 2017-07-02T22:38:39.684189-04:00 $35.00
whedgehead 2017-07-02T22:34:16.013791-04:00 $50.00
BashPrime 2017-07-02T22:32:26.962022-04:00 $50.00
booker_astral 2017-07-02T22:19:52.454332-04:00 $50.00
Veegie 2017-07-02T22:13:46.741853-04:00 $50.00
SirBanquo 2017-07-02T22:10:09.508160-04:00 $10.00
(Anonymous) 2017-07-02T22:01:43.981202-04:00 $15.00
Alindas 2017-07-02T22:00:10.004827-04:00 $50.00
(Anonymous) 2017-07-02T21:51:16.176084-04:00 $15.00
GuyMcGuy 2017-07-02T21:34:22.914565-04:00 $15.00
Casual Cheese 2017-07-02T21:29:32.101670-04:00 $150.00
(Anonymous) 2017-07-02T21:12:16.509746-04:00 $20.00
(Anonymous) 2017-07-02T21:02:03.764659-04:00 $50.00
SirBanquo 2017-07-02T20:53:32.956298-04:00 $20.00
Mabian 2017-07-02T20:47:08.413997-04:00 $50.00
ToadSensei 2017-07-02T20:39:23.416695-04:00 $10.00
Dante aka Storm 2017-07-02T20:33:05.805963-04:00 $5.00
Frigid 2017-07-02T20:22:03.698433-04:00 $15.00
(Anonymous) 2017-07-02T20:19:59.699542-04:00 $25.00
Saturn Newhaki 2017-07-02T20:16:41.956472-04:00 $50.00
phantompowered 2017-07-02T20:16:31.741729-04:00 $100.00
Woldsky 2017-07-02T20:14:54.913276-04:00 $100.00
wailingsheep 2017-07-02T20:14:45.294412-04:00 $15.00
SHODANsHacker 2017-07-02T20:14:10.547789-04:00 $20.00
PunJohn 2017-07-02T20:07:03.865403-04:00 $50.00
(Anonymous) 2017-07-02T19:54:06.435396-04:00 $25.00
Nightshade 2017-07-02T19:53:22.005343-04:00 $50.00
Samuel Tyler 2017-07-02T19:41:35.926865-04:00 $50.00
(Anonymous) 2017-07-02T19:38:49.797523-04:00 $20.00
TheIratePirAte 2017-07-02T19:31:54.714659-04:00 $50.00
shinyalice 2017-07-02T19:30:48.895570-04:00 $10.00
(Anonymous) 2017-07-02T19:16:10.032572-04:00 $10.00
Olympus72 2017-07-02T19:13:50.832304-04:00 $300.00
Xcessive 2017-07-02T19:04:39.283077-04:00 $25.00
Stonecoldhard1101 2017-07-02T18:57:42.974056-04:00 $300.00

|< >|

Back to Bid Index

Back to Main Index

Running on Django with Python
Python code by UraniumAnchor, SMK, and jdeng
CSS by Cool Matty